FW8505 Weather Reports


Display with metric or nautical units.
time (UTC)temp
F
wind
direction
speed
MPH
gust
MPH
rain 1hr
in
rain 24hr
in
rain mn
in
humidity
%
barometer
mb
20260510204601 85 179 3.0 12.0 0.00 0.00 0.00 78 1016.6
20260510203058 85 123 2.0 8.0 0.00 0.00 0.00 78 1016.6
20260510201557 86 274 4.0 10.0 0.00 0.00 0.00 77 1016.7
20260510200100 86 269 3.0 10.0 0.00 0.00 0.00 77 1016.5
20260510194559 88 155 3.0 7.0 0.00 0.00 0.00 74 1016.6
20260510193059 87 355 1.0 8.0 0.00 0.00 0.00 75 1016.6
20260510191555 87 323 3.0 11.0 0.00 0.00 0.00 73 1016.7
20260510190058 88 336 4.0 12.0 0.00 0.00 0.00 71 1016.7
20260510184557 89 267 1.0 10.0 0.00 0.00 0.00 69 1016.8
20260510183101 89 265 2.0 7.0 0.00 0.00 0.00 67 1017.0
20260510181620 90 308 2.0 9.0 0.00 0.00 0.00 66 1016.9
20260510180103 90 278 2.0 7.0 0.00 0.00 0.00 64 1017.2
20260510174559 91 175 3.0 11.0 0.00 0.00 0.00 63 1017.0
20260510173053 90 241 2.0 9.0 0.00 0.00 0.00 65 1017.2
20260510171550 90 231 1.0 7.0 0.00 0.00 0.00 66 1017.2
20260510170046 88 161 2.0 6.0 0.00 0.00 0.00 72 1017.4
20260510164545 88 192 1.0 6.0 0.00 0.00 0.00 72 1017.5
20260510163053 89 198 2.0 6.0 0.00 0.00 0.00 71 1017.5
20260510161543 87 265 1.0 6.0 0.00 0.00 0.00 73 1017.6
20260510160043 86 248 2.0 10.0 0.00 0.00 0.00 76 1017.6
20260510154541 86 203 1.0 6.0 0.00 0.00 0.00 76 1017.6
20260510153044 87 155 3.0 9.0 0.00 0.00 0.00 74 1017.5
20260510151545 87 144 2.0 10.0 0.00 0.00 0.00 74 1017.4
20260510150034 86 152 2.0 10.0 0.00 0.00 0.00 77 1017.4
20260510144534 85 201 2.0 8.0 0.00 0.00 0.00 77 1017.5
20260510143030 85 167 2.0 7.0 0.00 0.00 0.00 77 1017.6
20260510141534 83 184 2.0 7.0 0.00 0.00 0.00 81 1017.5
20260510140026 83 201 1.0 5.0 0.00 0.00 0.00 81 1017.4
20260510134522 82 217 1.0 5.0 0.00 0.00 0.00 82 1017.1
20260510133019 81 140 1.0 6.0 0.00 0.00 0.00 83 1017.0
20260510131515 80 210 2.0 8.0 0.00 0.00 0.00 84 1017.0
20260510130011 79 185 2.0 8.0 0.00 0.00 0.00 86 1017.0
20260510124507 77 150 2.0 5.0 0.00 0.00 0.00 89 1016.9
20260510123006 75 176 0.0 5.0 0.00 0.00 0.00 92 1016.8
20260510121504 74 135 0.0 2.0 0.00 0.00 0.00 93 1016.7
20260510120002 73 144 0.0 4.0 0.00 0.00 0.00 93 1016.6
20260510114600 72 163 0.0 0.0 0.00 0.00 0.00 93 1016.4
20260510113104 72 163 0.0 0.0 0.00 0.00 0.00 94 1016.1
20260510111600 72 163 0.0 0.0 0.00 0.00 0.00 93 1016.0
20260510110058 71 163 0.0 0.0 0.00 0.00 0.00 93 1015.7
20260510104556 71 163 0.0 0.0 0.00 0.00 0.00 93 1015.4
20260510103055 72 163 0.0 0.0 0.00 0.00 0.00 93 1015.2
20260510101600 72 163 0.0 0.0 0.00 0.00 0.00 93 1014.8
20260510100120 72 163 0.0 0.0 0.00 0.00 0.00 93 1014.8
20260510094556 72 163 0.0 0.0 0.00 0.00 0.00 93 1014.6
20260510093054 73 163 0.0 0.0 0.00 0.00 0.00 92 1014.6
20260510091549 73 163 0.0 0.0 0.00 0.00 0.00 92 1014.4
20260510090048 73 163 0.0 0.0 0.00 0.00 0.00 92 1014.3
20260510084546 74 163 0.0 1.0 0.00 0.00 0.00 92 1013.9
20260510083052 74 163 0.0 2.0 0.00 0.00 0.00 92 1014.0
20260510081547 74 163 0.0 2.0 0.00 0.00 0.00 92 1014.0
20260510080043 74 178 0.0 1.0 0.00 0.00 0.00 92 1014.2
20260510074541 75 178 0.0 0.0 0.00 0.00 0.00 92 1014.4
20260510073040 75 178 0.0 1.0 0.00 0.00 0.00 92 1014.1
20260510071548 75 178 0.0 3.0 0.00 0.00 0.00 92 1014.5
20260510070038 76 207 0.0 2.0 0.00 0.00 0.00 92 1014.5
20260510064535 76 220 0.0 1.0 0.00 0.00 0.00 92 1014.6
20260510063034 76 220 0.0 2.0 0.00 0.00 0.00 92 1014.8
20260510061543 76 221 0.0 1.0 0.00 0.00 0.00 92 1014.9
20260510060032 77 277 0.0 1.0 0.00 0.00 0.00 92 1015.1
20260510054529 77 277 0.0 1.0 0.00 0.00 0.00 92 1015.3
20260510053028 76 292 0.0 0.0 0.00 0.00 0.00 92 1015.6
20260510051527 76 292 0.0 0.0 0.00 0.00 0.00 91 1015.6
20260510050025 76 292 0.0 0.0 0.00 0.00 0.00 92 1015.7
20260510044524 76 292 0.0 0.0 0.00 0.00 0.00 91 1015.8
20260510043024 76 292 0.0 0.0 0.00 0.00 0.00 92 1015.8
20260510041521 76 292 0.0 0.0 0.00 0.00 0.00 92 1015.9
20260510040018 76 292 0.0 0.0 0.00 0.00 0.00 91 1015.9
20260510034518 76 292 0.0 0.0 0.00 0.00 0.00 91 1015.7
20260510033017 76 292 0.0 0.0 0.00 0.00 0.00 90 1015.7
20260510031534 77 292 0.0 1.0 0.00 0.00 0.00 90 1015.5
20260510030021 77 292 0.0 0.0 0.00 0.00 0.00 90 1015.7
20260510024528 77 292 0.0 0.0 0.00 0.00 0.00 90 1015.5
20260510023015 77 292 0.0 0.0 0.00 0.00 0.00 90 1015.4
20260510021516 77 292 0.0 0.0 0.00 0.00 0.00 89 1015.3
20260510020015 78 292 0.0 0.0 0.00 0.00 0.00 89 1015.3
20260510014514 78 292 0.0 0.0 0.00 0.00 0.00 88 1015.3
20260510013014 78 292 0.0 0.0 0.00 0.00 0.00 88 1015.3
20260510011513 78 292 0.0 0.0 0.00 0.00 0.00 87 1015.0
20260510010013 79 292 0.0 0.0 0.00 0.00 0.00 86 1014.6
20260510004512 79 293 0.0 1.0 0.00 0.00 0.00 86 1014.6
20260510003029 80 297 0.0 3.0 0.00 0.00 0.00 85 1014.5
20260510001515 80 241 0.0 3.0 0.00 0.00 0.00 84 1014.3
20260510000013 80 234 0.0 4.0 0.00 0.00 0.00 83 1014.0
20260509234522 81 208 0.0 3.0 0.00 0.00 0.00 82 1013.7
20260509233015 81 231 1.0 6.0 0.00 0.00 0.00 81 1013.9
20260509231510 82 236 2.0 6.0 0.00 0.00 0.00 80 1013.8
20260509230014 83 169 2.0 6.0 0.00 0.00 0.00 78 1013.5
20260509224508 83 277 1.0 5.0 0.00 0.00 0.00 75 1013.7
20260509223009 83 211 2.0 8.0 0.00 0.00 0.00 71 1013.4
20260509221508 84 205 0.0 5.0 0.00 0.00 0.00 69 1013.2
20260509220009 85 188 2.0 8.0 0.00 0.00 0.00 63 1013.1
20260509214508 87 351 2.0 8.0 0.00 0.00 0.00 62 1013.1
20260509213007 86 236 1.0 7.0 0.00 0.00 0.00 57 1012.9
20260509211506 87 197 2.0 6.0 0.00 0.00 0.00 57 1012.8
20260509210012 88 86 3.0 12.0 0.00 0.00 0.00 54 1012.8